Location: *
(45.1961°N, 1.9694°E)
Time: 23:08:42
(UTC+00:00)

Cosmos 1869 Rocket - Pass Details

Date: 25 August 2019
Orbit: 606 x 632 km, 82.5° (Epoch: 20 September)

Event Time Altitude Azimuth Distance (km) Brightness Sun altitude
Rises 19:12:11 0° 195° (SSW) 2,849 6.9 -5.7°
Reaches altitude 10° 19:14:24 10° 199° (SSW) 1,951 6.1 -6.1°
Maximum altitude 19:18:40 63° 280° (W) 684 4.1 -6.8°
Drops below altitude 10° 19:23:00 10° 3° (N) 1,977 6.4 -7.5°
Sets 19:25:16 0° 6° (N) 2,890 7.2 -7.9°
